LAN274 SCBA-SCTE

Flight info

Callsign LAN274
Flight time 0h 51m
Altitude 30000
Route REKOD6C REKOD T127 GENEK GENEK2A
Aircraft A320/M-SDE3FGHIRWY/LB1

Departure

Time 2026-05-04 18:55
Airport Balmaceda Airport (SCBA)

Arrival

Time 2026-05-04 19:47
Airport El Tepual International Airport (SCTE)
Time Latitude Longitude Altitude Speed Heading
2026-05-04 18:28 -45.91266 -71.69183 1754 ft 0 kts 305°
2026-05-04 18:46 -45.91273 -71.69170 1749 ft 4 kts 308°
2026-05-04 18:46 -45.91288 -71.69141 1752 ft 4 kts 283°
2026-05-04 18:46 -45.91290 -71.69130 1752 ft 0 kts 211°
2026-05-04 18:49 -45.91301 -71.69139 1750 ft 5 kts 211°
2026-05-04 18:49 -45.91332 -71.69166 1752 ft 8 kts 211°
2026-05-04 18:49 -45.91381 -71.69210 1753 ft 8 kts 211°
2026-05-04 18:49 -45.91430 -71.69152 1752 ft 17 kts 100°
2026-05-04 18:50 -45.91451 -71.68995 1750 ft 15 kts 101°
2026-05-04 18:50 -45.91470 -71.68848 1751 ft 14 kts 100°
2026-05-04 18:50 -45.91486 -71.68714 1754 ft 14 kts 100°
2026-05-04 18:50 -45.91504 -71.68568 1752 ft 15 kts 100°
2026-05-04 18:51 -45.91523 -71.68426 1751 ft 14 kts 100°
2026-05-04 18:51 -45.91539 -71.68297 1754 ft 12 kts 100°
2026-05-04 18:51 -45.91555 -71.68176 1753 ft 15 kts 100°
2026-05-04 18:51 -45.91574 -71.68036 1752 ft 13 kts 101°
2026-05-04 18:52 -45.91592 -71.67903 1752 ft 13 kts 101°
2026-05-04 18:52 -45.91608 -71.67777 1754 ft 12 kts 101°
2026-05-04 18:52 -45.91623 -71.67664 1753 ft 11 kts 101°
2026-05-04 18:52 -45.91637 -71.67562 1754 ft 10 kts 101°
2026-05-04 18:53 -45.91649 -71.67473 1754 ft 8 kts 101°
2026-05-04 18:53 -45.91660 -71.67389 1754 ft 8 kts 101°
2026-05-04 18:53 -45.91685 -71.67333 1753 ft 6 kts 159°
2026-05-04 18:53 -45.91722 -71.67339 1754 ft 5 kts 201°
2026-05-04 18:54 -45.91749 -71.67352 1753 ft 4 kts 188°
2026-05-04 18:54 -45.91782 -71.67386 1752 ft 10 kts 248°
2026-05-04 18:54 -45.91768 -71.67533 1754 ft 30 kts 281°
2026-05-04 18:54 -45.91685 -71.68196 1752 ft 102 kts 280°
2026-05-04 18:55 -45.91534 -71.69472 1820 ft 149 kts 279°
2026-05-04 18:55 -45.91140 -71.72518 3149 ft 161 kts 283°
2026-05-04 18:55 -45.90935 -71.74148 3819 ft 174 kts 282°
2026-05-04 18:56 -45.90708 -71.75974 4158 ft 197 kts 282°
2026-05-04 18:56 -45.90451 -71.78033 4530 ft 222 kts 281°
2026-05-04 18:56 -45.90166 -71.80331 5102 ft 242 kts 281°
2026-05-04 18:56 -45.89556 -71.82577 6065 ft 247 kts 306°
2026-05-04 18:57 -45.88187 -71.84110 7151 ft 253 kts 323°
2026-05-04 18:57 -45.86687 -71.85435 8188 ft 253 kts 321°
2026-05-04 18:57 -45.85185 -71.86767 9203 ft 255 kts 320°
2026-05-04 18:57 -45.83669 -71.88115 10154 ft 258 kts 320°
2026-05-04 18:58 -45.82071 -71.89555 10623 ft 279 kts 320°
2026-05-04 18:58 -45.80377 -71.91094 11164 ft 294 kts 320°
2026-05-04 18:58 -45.78630 -71.92666 11970 ft 300 kts 321°
2026-05-04 18:58 -45.76845 -71.94257 12812 ft 304 kts 321°
2026-05-04 18:59 -45.75036 -71.95865 13651 ft 308 kts 321°
2026-05-04 18:59 -45.73196 -71.97499 14355 ft 313 kts 321°
2026-05-04 18:59 -45.71330 -71.99159 15044 ft 319 kts 321°
2026-05-04 18:59 -45.69437 -72.00845 15713 ft 324 kts 321°
2026-05-04 19:00 -45.67505 -72.02567 16382 ft 329 kts 321°
2026-05-04 19:00 -45.66209 -72.03720 16827 ft 333 kts 321°
2026-05-04 19:00 -45.64214 -72.05453 17505 ft 340 kts 322°
2026-05-04 19:00 -45.62134 -72.07125 18178 ft 346 kts 324°
2026-05-04 19:01 -45.59994 -72.08758 18812 ft 351 kts 324°
2026-05-04 19:01 -45.57823 -72.10376 19468 ft 353 kts 325°
2026-05-04 19:01 -45.54903 -72.12544 20342 ft 355 kts 324°
2026-05-04 19:01 -45.53451 -72.13629 20788 ft 355 kts 324°
2026-05-04 19:02 -45.51263 -72.15277 21374 ft 357 kts 323°
2026-05-04 19:02 -45.49065 -72.16944 21975 ft 359 kts 323°
2026-05-04 19:02 -45.46830 -72.18646 22601 ft 361 kts 323°
2026-05-04 19:02 -45.44616 -72.20332 23251 ft 362 kts 323°
2026-05-04 19:03 -45.42384 -72.22028 23773 ft 364 kts 323°
2026-05-04 19:03 -45.40145 -72.23725 24294 ft 365 kts 323°
2026-05-04 19:03 -45.37900 -72.25426 24796 ft 366 kts 322°
2026-05-04 19:03 -45.35595 -72.27032 25333 ft 374 kts 328°
2026-05-04 19:04 -45.33055 -72.28104 25814 ft 389 kts 338°
2026-05-04 19:04 -45.30385 -72.28830 26316 ft 392 kts 338°
2026-05-04 19:04 -45.27696 -72.29560 26801 ft 394 kts 337°
2026-05-04 19:04 -45.25000 -72.30295 27274 ft 396 kts 337°
2026-05-04 19:05 -45.22283 -72.31035 27742 ft 398 kts 336°
2026-05-04 19:05 -45.19572 -72.31774 28126 ft 400 kts 336°
2026-05-04 19:05 -45.16819 -72.32520 28615 ft 402 kts 336°
2026-05-04 19:05 -45.14058 -72.33268 29027 ft 404 kts 335°
2026-05-04 19:06 -45.11292 -72.34019 29463 ft 406 kts 335°
2026-05-04 19:06 -45.08510 -72.34774 29709 ft 408 kts 335°
2026-05-04 19:06 -45.05757 -72.35508 29743 ft 395 kts 335°
2026-05-04 19:06 -45.03117 -72.36190 29737 ft 378 kts 334°
2026-05-04 19:07 -44.98034 -72.37539 29745 ft 368 kts 333°
2026-05-04 19:07 -44.92986 -72.38937 29758 ft 367 kts 332°
2026-05-04 19:08 -44.87974 -72.40316 29759 ft 367 kts 332°
2026-05-04 19:08 -44.82953 -72.41676 29764 ft 367 kts 332°
2026-05-04 19:09 -44.77954 -72.43015 29750 ft 366 kts 332°
2026-05-04 19:09 -44.72933 -72.44356 29760 ft 367 kts 332°
2026-05-04 19:10 -44.67925 -72.45690 29765 ft 366 kts 332°
2026-05-04 19:10 -44.62978 -72.47002 29752 ft 362 kts 331°
2026-05-04 19:11 -44.58056 -72.48321 29744 ft 360 kts 331°
2026-05-04 19:11 -44.53122 -72.49651 29806 ft 365 kts 332°
2026-05-04 19:12 -44.45659 -72.51640 29811 ft 364 kts 332°
2026-05-04 19:13 -44.40666 -72.52952 29807 ft 362 kts 331°
2026-05-04 19:13 -44.35720 -72.54249 29803 ft 361 kts 331°
2026-05-04 19:14 -44.30789 -72.55543 29804 ft 359 kts 331°
2026-05-04 19:14 -44.25884 -72.56841 29789 ft 358 kts 331°
2026-05-04 19:15 -44.20989 -72.58131 29792 ft 358 kts 331°
2026-05-04 19:15 -44.16096 -72.59427 29793 ft 358 kts 330°
2026-05-04 19:16 -44.11218 -72.60705 29788 ft 355 kts 330°
2026-05-04 19:16 -44.06354 -72.61983 29788 ft 355 kts 330°
2026-05-04 19:17 -44.01493 -72.63238 29789 ft 355 kts 330°
2026-05-04 19:17 -43.96625 -72.64479 29796 ft 356 kts 329°
2026-05-04 19:18 -43.91751 -72.65746 29810 ft 356 kts 329°
2026-05-04 19:18 -43.86886 -72.67016 29805 ft 356 kts 329°
2026-05-04 19:19 -43.81996 -72.68288 29809 ft 356 kts 329°
2026-05-04 19:19 -43.77131 -72.69553 29813 ft 355 kts 329°
2026-05-04 19:20 -43.72285 -72.70802 29816 ft 353 kts 328°
2026-05-04 19:20 -43.67452 -72.72045 29810 ft 352 kts 328°
2026-05-04 19:21 -43.62632 -72.73300 29837 ft 353 kts 328°
2026-05-04 19:21 -43.57798 -72.74556 29822 ft 353 kts 328°
2026-05-04 19:22 -43.52974 -72.75790 29819 ft 352 kts 328°
2026-05-04 19:22 -43.48146 -72.77028 29820 ft 353 kts 328°
2026-05-04 19:23 -43.43334 -72.78259 29823 ft 352 kts 328°
2026-05-04 19:23 -43.38467 -72.79505 29832 ft 356 kts 330°
2026-05-04 19:24 -43.33525 -72.80445 29839 ft 360 kts 332°
2026-05-04 19:24 -43.28544 -72.81250 29832 ft 360 kts 332°
2026-05-04 19:25 -43.23578 -72.82090 29831 ft 359 kts 332°
2026-05-04 19:25 -43.18618 -72.82970 29845 ft 360 kts 332°
2026-05-04 19:26 -43.13655 -72.83859 29849 ft 361 kts 332°
2026-05-04 19:26 -43.11115 -72.84328 29867 ft 374 kts 332°
2026-05-04 19:26 -43.08489 -72.84831 29869 ft 387 kts 333°
2026-05-04 19:27 -43.03041 -72.85824 29871 ft 399 kts 334°
2026-05-04 19:27 -42.97524 -72.86741 29876 ft 400 kts 335°
2026-05-04 19:28 -42.92005 -72.87671 29877 ft 399 kts 334°
2026-05-04 19:28 -42.86503 -72.88634 29877 ft 398 kts 335°
2026-05-04 19:29 -42.81013 -72.89600 29868 ft 397 kts 335°
2026-05-04 19:29 -42.78288 -72.90056 29804 ft 382 kts 335°
2026-05-04 19:29 -42.75655 -72.90493 28894 ft 384 kts 335°
2026-05-04 19:29 -42.73002 -72.90966 28093 ft 384 kts 336°
2026-05-04 19:30 -42.70357 -72.91440 27440 ft 382 kts 336°
2026-05-04 19:30 -42.67730 -72.91901 26825 ft 379 kts 337°
2026-05-04 19:30 -42.65124 -72.92350 26225 ft 376 kts 338°
2026-05-04 19:30 -42.62539 -72.92792 25641 ft 373 kts 338°
2026-05-04 19:31 -42.59981 -72.93232 25070 ft 370 kts 338°
2026-05-04 19:31 -42.57434 -72.93676 24499 ft 367 kts 339°
2026-05-04 19:31 -42.55764 -72.93968 24127 ft 365 kts 339°
2026-05-04 19:31 -42.53254 -72.94404 23574 ft 363 kts 339°
2026-05-04 19:32 -42.50751 -72.94838 22955 ft 361 kts 339°
2026-05-04 19:32 -42.48237 -72.95274 22313 ft 359 kts 340°
2026-05-04 19:32 -42.45766 -72.95701 21718 ft 357 kts 340°
2026-05-04 19:32 -42.43307 -72.96126 21150 ft 355 kts 340°
2026-05-04 19:33 -42.40861 -72.96551 20606 ft 353 kts 340°
2026-05-04 19:33 -42.38433 -72.96973 20064 ft 352 kts 340°
2026-05-04 19:33 -42.36003 -72.97391 19538 ft 351 kts 341°
2026-05-04 19:33 -42.33589 -72.97805 19034 ft 349 kts 341°
2026-05-04 19:34 -42.31184 -72.98218 18543 ft 348 kts 341°
2026-05-04 19:34 -42.28793 -72.98626 18045 ft 346 kts 341°
2026-05-04 19:34 -42.26405 -72.99032 17509 ft 345 kts 342°
2026-05-04 19:34 -42.24034 -72.99436 17005 ft 342 kts 342°
2026-05-04 19:35 -42.21680 -72.99840 16533 ft 340 kts 342°
2026-05-04 19:35 -42.19345 -73.00241 16066 ft 337 kts 342°
2026-05-04 19:35 -42.17028 -73.00640 15604 ft 335 kts 343°
2026-05-04 19:35 -42.14727 -73.01036 15150 ft 332 kts 343°
2026-05-04 19:36 -42.12440 -73.01428 14699 ft 330 kts 343°
2026-05-04 19:36 -42.10167 -73.01816 14259 ft 328 kts 344°
2026-05-04 19:36 -42.07908 -73.02200 13828 ft 326 kts 344°
2026-05-04 19:36 -42.05632 -73.02587 13362 ft 324 kts 345°
2026-05-04 19:37 -42.03411 -73.02968 12905 ft 321 kts 345°
2026-05-04 19:37 -42.01203 -73.03346 12449 ft 318 kts 345°
2026-05-04 19:37 -41.99020 -73.03714 12001 ft 315 kts 346°
2026-05-04 19:37 -41.96871 -73.04076 11404 ft 308 kts 346°
2026-05-04 19:38 -41.94762 -73.04431 10607 ft 303 kts 347°
2026-05-04 19:38 -41.92686 -73.04783 9843 ft 298 kts 347°
2026-05-04 19:38 -41.90647 -73.05131 9003 ft 293 kts 347°
2026-05-04 19:38 -41.88634 -73.05474 8127 ft 290 kts 347°
2026-05-04 19:39 -41.86642 -73.05814 7264 ft 288 kts 347°
2026-05-04 19:39 -41.84658 -73.06152 6421 ft 286 kts 348°
2026-05-04 19:39 -41.82691 -73.06485 5597 ft 285 kts 348°
2026-05-04 19:39 -41.80726 -73.06819 4864 ft 284 kts 348°
2026-05-04 19:40 -41.78790 -73.07150 4139 ft 279 kts 348°
2026-05-04 19:40 -41.76866 -73.07477 3350 ft 277 kts 348°
2026-05-04 19:40 -41.74957 -73.07799 3079 ft 273 kts 349°
2026-05-04 19:40 -41.73184 -73.08092 2990 ft 257 kts 348°
2026-05-04 19:41 -41.71481 -73.08368 2997 ft 237 kts 348°
2026-05-04 19:41 -41.69905 -73.08625 3003 ft 220 kts 348°
2026-05-04 19:41 -41.68443 -73.08867 3000 ft 204 kts 347°
2026-05-04 19:41 -41.67060 -73.09101 3009 ft 199 kts 347°
2026-05-04 19:42 -41.65688 -73.09337 3005 ft 198 kts 347°
2026-05-04 19:42 -41.64320 -73.09571 3009 ft 198 kts 347°
2026-05-04 19:42 -41.62933 -73.09811 3009 ft 198 kts 347°
2026-05-04 19:42 -41.61553 -73.09955 3009 ft 200 kts 353°
2026-05-04 19:43 -41.60166 -73.09962 3006 ft 197 kts 355°
2026-05-04 19:43 -41.58825 -73.09923 2963 ft 188 kts 355°
2026-05-04 19:43 -41.57530 -73.09879 2812 ft 184 kts 355°
2026-05-04 19:43 -41.56282 -73.09834 2569 ft 173 kts 354°
2026-05-04 19:44 -41.55132 -73.09791 2358 ft 156 kts 355°
2026-05-04 19:44 -41.54098 -73.09753 2135 ft 142 kts 354°
2026-05-04 19:44 -41.53145 -73.09720 1940 ft 133 kts 354°
2026-05-04 19:44 -41.52228 -73.09690 1770 ft 131 kts 354°
2026-05-04 19:45 -41.51327 -73.09661 1601 ft 129 kts 355°
2026-05-04 19:45 -41.50429 -73.09637 1436 ft 129 kts 356°
2026-05-04 19:45 -41.49533 -73.09594 1232 ft 129 kts 358°
2026-05-04 19:45 -41.48641 -73.09545 1024 ft 128 kts 358°
2026-05-04 19:46 -41.47753 -73.09526 936 ft 127 kts 358°
2026-05-04 19:46 -41.46868 -73.09526 702 ft 127 kts 360°
2026-05-04 19:46 -41.45986 -73.09472 482 ft 126 kts
2026-05-04 19:46 -41.45106 -73.09440 360 ft 127 kts
2026-05-04 19:47 -41.44307 -73.09416 285 ft 82 kts
2026-05-04 19:47 -41.44021 -73.09403 291 ft 16 kts
2026-05-04 19:47 -41.43912 -73.09393 293 ft 16 kts
2026-05-04 19:47 -41.43798 -73.09400 296 ft 17 kts 358°
2026-05-04 19:48 -41.43720 -73.09474 299 ft 14 kts 271°
2026-05-04 19:48 -41.43707 -73.09600 302 ft 14 kts 319°
2026-05-04 19:48 -41.43605 -73.09607 301 ft 16 kts
2026-05-04 19:48 -41.43486 -73.09602 302 ft 18 kts
2026-05-04 19:49 -41.43352 -73.09596 302 ft 18 kts
2026-05-04 19:49 -41.43296 -73.09624 301 ft 9 kts 288°
2026-05-04 19:49 -41.43295 -73.09698 301 ft 7 kts 270°
2026-05-04 19:49 -41.43295 -73.09743 301 ft 3 kts 271°
2026-05-04 19:50 -41.43295 -73.09745 301 ft 0 kts 271°